Location: Lombard
(41.8800°N, 88.0080°W)
Time: 12:24:31
(UTC-05:00)

A-11 Canister half - Pass Details

Date: 01 February 2023
Orbit: 1512 x 1687 km, 47.2° (Epoch: 20 March)

Event Time Altitude Azimuth Distance (km) Brightness Sun altitude
Rises 10:58:26 0° 226° (SW) 4,852 11.9 29.1°
Reaches altitude 10° 11:01:38 10° 224° (SW) 3,846 11.6 29.3°
Maximum altitude 11:11:15 66° 145° (SE) 1,703 10.3 29.8°
Drops below altitude 10° 11:20:32 10° 66° (ENE) 3,723 11.0 30.2°
Sets 11:23:34 0° 64° (ENE) 4,691 11.4 30.3°
